Location: Izdebno
(52.6670°N, 16.2170°E)
Time: 17:27:35
(UTC+02:00)

Transit 4A - Pass Details

Date: 01 March 2024
Orbit: 871 x 972 km, 66.8° (Epoch: 21 April)

Event Time Altitude Azimuth Distance (km) Brightness Sun altitude
Rises 03:55:55 0° 285° (WNW) 3,559 - -25.4°
Reaches altitude 10° 03:59:06 10° 301° (WNW) 2,599 - -25.0°
Exits shadow 04:01:21 18° 320° (NW) 2,089 9.5 -24.7°
Maximum altitude 04:03:39 22° 350° (N) 1,874 9.6 -24.3°
Drops below altitude 10° 04:08:09 10° 40° (NE) 2,556 11.0 -23.7°
Sets 04:11:15 0° 56° (NE) 3,484 12.2 -23.3°
